Location: Abraham Lincoln Continuation High School
(33.9711°N, 117.3662°W)
Time: 10:06:49
(UTC+00:00)

X-37B - Pass Details

Date: 22 January 2021
Orbit: 383 x 391 km, 45.0° (Epoch: 10 February)

Event Time Altitude Azimuth Distance (km) Brightness Sun altitude
Rises 01:45:31 0° 266° (W) 2,264 6.3 -7.8°
Reaches altitude 10° 01:47:49 10° 280° (W) 1,413 4.5 -8.2°
Maximum altitude 01:50:30 25° 338° (NNW) 842 2.3 -8.8°
Drops below altitude 10° 01:53:12 10° 35° (NE) 1,420 3.0 -9.3°
Enters shadow 01:53:23 - 37° (NE) 1,485 3.0 -9.3°
